sat.trackr.live / text

‹ back to catalog

HODOYOSHI-3

NORAD 40015 · 2014-033F

PAYLOAD ACTIVE UNKNOWN

§ Identity

Operator
Country
JPN
Launch date
2014-06-19
Launch site
DLS
Launch vehicle
Mass (kg)
RCS (m²)
0.35

Purposes: earth_obs

External: N2YO · Heavens-Above · Gunter

§ Orbital elements

Epoch: 2026-09-20T03:54:06.024672Z

Period
96.93 min
Inclination
97.6535°
Eccentricity
0.0033708
Mean motion
14.85565093 rev/d
Perigee alt
588.3 km
Apogee alt
635.4 km
Semi-major
6,989.9 km
B*
8.3823e-5
RAAN
62.4585°
Arg perigee
43.6589°
Mean anomaly
316.7284°
Rev number
66,172

§ Raw data

HODOYOSHI-31 40015U 14033F   26263.16256973  .00000679  00000+0  83823-4 0  99982 40015  97.6535  62.4585 0033708  43.6589 316.7284 14.85565093661722

JSON: /api/v1/satellites/40015 · /tle

For live sub-satellite position, see the globe view (requires WebGL).

§ Visibility from observer

Set your observer location to see the next 7 days of passes ≥ 10°. The values pass through the URL so the page stays shareable.

No JS? Fill the form by hand. The geolocation button needs JavaScript.

§ Radio — SatNOGS DB

ModeDescriptionDownlinkUplink
FM S-band telemetry 2.264 GHz

1 transmitter · refreshed weekly from db.satnogs.org